Regional Weather Roundup
Issued by NWS

Home | Current Version | Previous Version | Text Only | Print | Product List | Glossary Off
Versions: 1 2 3 4 5 6 7 8 9 10 11 12 13 14 15 16 17 18 19 20 21 22 23 24 25 26 27 28 29 30 31 32 33 34 35 36 37 38 39 40 41 42 43 44 45 46 47 48 49 50

000
ASUS45 KBOU 250707
RWRCO

WEATHER ROUNDUP FOR COLORADO
NATIONAL WEATHER SERVICE DENVER/BOULDER CO
1200 AM MST SAT FEB 25 2017

NOTE: "FAIR" INDICATES FEW OR NO CLOUDS BELOW 12000 FEET WITH NO
SIGNIFICANT WEATHER AND/OR OBSTRUCTIONS TO VISIBILITY.

COZ001>005-013-030-031-250800-
...NORTHWEST COLORADO...

CITY           SKY/WX    TMP DP  RH WIND       PRES   REMARKS
CRAIG          MOCLDY     9   4  80 SE5       30.07S WCI   1
HAYDEN         FAIR      10   3  72 CALM      30.04S
MEEKER         FAIR       9   6  88 NE7       30.05S WCI  -2
MOUNT WERNER   NOT AVBL
STEAMBOAT SPGS CLOUDY     6   3  87 CALM      30.02S
WALDEN         NOT AVBL
$$

COZ006>008-011-250800-
...WEST CENTRAL VALLEYS...

CITY           SKY/WX    TMP DP  RH WIND       PRES   REMARKS
GRAND JUNCTION FAIR      19  16  88 E6        30.09F WCI  11
MONTROSE       CLOUDY    17  10  74 SE9       30.11F WCI   6
EAGLE          FLURRIES  16  12  84 NE3       30.05S
RIFLE          MOCLDY    15  12  88 E6        30.09R WCI   6
DELTA          FAIR      21  15  77 CALM      30.11R
NUCLA          FAIR      19  10  68 SE9       30.11S WCI   9
$$

COZ017>023-064>068-250800-
...SOUTHWEST COLORADO...

CITY           SKY/WX    TMP DP  RH WIND       PRES   REMARKS
DURANGO        FAIR      19   8  62 CALM      30.04R
CORTEZ         FAIR      17  14  88 N5        30.07S WCI  10
PAGOSA SPRINGS FAIR      12   2  65 CALM      30.02R
TELLURIDE      CLOUDY     9   5  81 SE5       30.00S WCI   1
WOLF CREEK PAS FAIR      -2  -6  84 SW10      29.91R WCI -19
$$

COZ009-010-012-014-032>034-037-058>063-250800-
...CENTRAL COLORADO...

CITY           SKY/WX    TMP DP  RH WIND       PRES   REMARKS
ASPEN          CLOUDY    12   9  87 CALM      29.97S
BUENA VISTA    FAIR      14   5  66 CALM      29.95F
COPPER MTN     LGT SNOW   1  -6  71 MISG      29.78S
BERTHOUD PASS  LGT SNOW  -8 -17  65 NW18      29.73S WCI -31
COTTONWOOD PAS FAIR      12  -6  44 W6G23     29.88S WCI   3
GUNNISON       FAIR       9   5  84 N6        30.01S WCI  -1
KREMMLING      FAIR      18   7  62 CALM      30.00S
LEADVILLE      LGT SNOW   3  -2  79 CALM      29.86F
MONARCH PASS   CLOUDY     0  -6  78 W25G37    29.90S WCI -25
SALIDA         FAIR      19   2  46 W9        30.04F WCI   9
SUNLIGHT       NOT AVBL
WILKERSON PASS MOCLDY     1  -4  78 SW6       29.83F WCI -10
$$

COZ069>075-250800-
...SAN LUIS VALLEY/SANGRE DE CRISTO MOUNTAINS...

CITY           SKY/WX    TMP DP  RH WIND       PRES   REMARKS
ALAMOSA        FAIR      14  10  84 CALM      29.99R
LA VETA PASS   LGT SNOW   9   5  85 SW7G23    29.89S WCI  -3
SAGUACHE       FAIR      14   7  73 NW10      29.98S WCI   1
$$

COZ035-036-038>040-250800-
...NORTHERN COLORADO FRONT RANGE...

CITY           SKY/WX    TMP DP  RH WIND       PRES   REMARKS
DENVER INTL AP MOCLDY    19  14  81 S10       30.00F WCI   7
DMNS CITY PARK   N/A     21  13  72 SW5       30.00F WCI  14
AURORA         MOCLDY    17  13  85 CALM      30.00F
FRONT RANGE AP CLOUDY    19  18  93 S5        30.01S WCI  13
ERIE MUNI ARPT FAIR      17  15  94 N3        30.02S
BOULDER MUN AP FAIR      18  12  79 CALM      30.00F
CENTENNIAL     MOCLDY    18  13  80 S3        29.99F
BROOMFIELD     FAIR      21  14  73 SW5       30.00S WCI  15
FORT COLLINS   FAIR      16  12  84 NE3       30.03F
LONGMONT       FAIR      15   9  76 W5        30.04F WCI   7
$$

COZ041-046-047-076>085-087-088-250800-
...PIKES PEAK/PALMER DIVIDE AND SOUTHERN FOOTHILLS...

CITY           SKY/WX    TMP DP  RH WIND       PRES   REMARKS
COLO. SPRINGS  FLURRIES  16   9  74 S8        30.02F WCI   5
A. F. ACADEMY  CLOUDY    15  10  80 SE3       29.99S
SCHRIEVER AFB  FLURRIES  14  10  85 SE6       30.03  WCI   5
ELLICOTT       MOCLDY   N/A N/A N/A CALM        N/A
FALCON         FLURRIES  15  13  91 CALM      30.00S
FORT CARSON    CLOUDY    20  11  68 S13       30.02F WCI   7
LIMON          MOCLDY    13  10  88 CALM      30.04S
MONUMENT HILL  LGT SNOW  16  12  86 S13       29.98S VSB 1   WCI   2
TRINIDAD       FAIR      13   7  77 NW7       30.03F WCI   3
$$

COZ042>045-048>051-090-091-250800-
...NORTHEAST COLORADO...

CITY           SKY/WX    TMP DP  RH WIND       PRES   REMARKS
GREELEY ARPT   FAIR      13  10  88 CALM      30.05F
AKRON          FAIR      13   8  81 SW9       30.04F WCI   1
BURLINGTON     FAIR      10   6  84 W8        30.09S WCI  -2
WRAY           NOT AVBL
STERLING       FAIR       9   9 100 CALM      30.06F
HOLYOKE        FAIR      12   9  85 CALM      30.10S
FORT MORGAN    FAIR      15  12  89 SW5       30.06S WCI   7
$$

COZ086-089-092>099-250800-
...SOUTHEAST COLORADO...

CITY           SKY/WX    TMP DP  RH WIND       PRES   REMARKS
PUEBLO         FAIR      18   8  65 E8        30.08F WCI   8
LA JUNTA       FAIR      24  13  62 SE6       30.11S WCI  17
LAMAR          CLOUDY    25  14  63 SE6       30.11F WCI  18
SPRINGFIELD      N/A     11   7  84 CALM      30.10S
$$



USA.gov is the U.S. government's official web portal to all federal, state and local government web resources and services.